Theta_e
313 314 314 313 313 313 313 313 313 312 313 313 314 313 313 312 313 307 301 305 309 315 318 313 309 306 308 305 305 304 299 295 296 295 297 301 300 303 305 305 305 308 309 324 349
313 313 313 313 313 313 313 312 312 312 312 313 314 313 312 312 307 302 309 313 314 318 314 307 304 304 300 302 302 302 297 298 302 302 300 301 302 303 303 303 304 308 312 322 344
313 313 313 313 313 312 312 312 312 312 312 312 312 313 312 311 300 299 314 316 318 319 315 309 309 305 296 301 300 298 296 301 301 304 303 302 301 304 303 302 306 306 310 322 341
313 313 313 313 312 312 312 312 312 311 311 311 312 313 312 307 291 305 323 316 314 312 306 308 306 301 297 294 299 295 298 299 301 302 301 300 304 304 305 305 309 310 311 314 339
312 312 312 312 312 312 312 311 311 311 311 311 312 313 307 299 299 307 314 310 309 307 303 304 302 299 294 295 297 295 296 299 301 301 302 303 301 301 303 309 312 313 313 313 320
312 312 311 311 311 311 311 312 311 311 311 312 313 312 303 295 307 308 307 307 307 306 303 304 302 303 298 296 294 296 297 297 299 299 301 299 300 302 304 307 308 310 311 313 314
312 311 311 311 311 311 312 312 311 312 312 313 314 308 300 300 308 308 307 307 307 306 303 305 305 301 299 296 300 298 294 297 298 298 298 300 296 297 304 307 306 308 310 311 313
312 311 311 311 311 312 313 312 313 314 314 314 315 307 298 308 310 308 308 308 308 308 306 306 305 301 298 299 296 293 293 288 296 298 298 299 290 300 304 304 303 305 306 308 312
312 311 311 311 311 312 313 312 315 316 316 315 308 303 299 310 305 310 310 306 307 307 307 307 304 299 296 292 289 290 285 287 291 299 297 296 292 299 304 304 303 304 306 307 310
311 311 311 311 312 312 312 312 316 315 312 311 308 299 302 301 306 308 311 308 305 304 301 301 298 294 293 290 283 285 285 287 288 294 297 295 294 298 302 303 303 305 306 308 309
311 311 310 311 311 312 309 307 303 302 306 300 300 299 301 305 308 305 307 306 304 300 294 297 292 289 292 293 292 291 288 288 290 294 294 293 295 298 301 302 303 304 306 308 310
311 311 311 311 311 310 306 304 303 304 296 302 302 301 304 304 298 302 307 300 297 294 294 292 289 295 296 294 291 291 288 288 291 293 292 291 292 297 300 301 304 305 306 308 310
311 311 310 311 311 306 303 304 307 306 297 299 302 301 302 303 298 298 303 301 297 294 294 291 293 296 293 292 290 290 288 288 288 292 293 291 288 291 297 301 303 306 308 309 310
310 310 309 309 305 303 303 305 307 306 292 293 296 299 302 302 296 304 307 302 298 293 294 293 297 294 293 291 292 287 293 290 289 287 283 291 281 289 294 296 301 304 307 307 309
310 310 310 308 306 303 304 307 306 304 279 293 296 305 303 296 297 299 308 302 294 294 293 290 293 292 291 292 294 290 294 291 290 288 287 286 284 289 295 295 298 303 306 308 310
309 310 309 306 305 306 307 306 305 289 279 289 296 295 295 297 296 300 299 303 301 295 294 294 298 296 295 296 295 296 291 290 289 287 279 285 285 286 290 295 300 303 307 308 308
309 308 308 307 302 307 307 303 290 283 292 289 290 294 293 292 293 295 294 293 290 284 287 292 292 297 298 291 294 292 287 280 278 278 278 287 284 287 296 300 302 303 306 308 308
307 306 307 308 305 306 303 295 282 287 288 294 293 292 289 292 292 293 291 290 294 292 288 284 283 292 297 293 290 290 288 281 274 276 280 287 281 287 296 301 305 306 308 307 307
305 306 305 305 305 304 300 288 286 288 292 290 291 288 288 291 291 291 291 290 292 294 285 286 285 295 296 297 293 288 284 290 283 284 280 284 288 295 296 299 302 304 306 307 307
301 301 303 305 305 305 295 288 290 294 294 293 286 289 286 289 288 289 289 293 292 296 296 288 283 291 294 296 294 290 292 282 284 276 275 281 283 286 293 295 301 304 305 307 309
301 300 304 303 306 298 289 289 291 296 296 291 289 288 289 288 289 287 289 293 295 294 295 288 284 287 293 290 288 288 286 287 287 285 280 279 283 294 299 299 302 305 306 307 314
298 292 303 304 294 291 290 290 293 294 296 293 294 292 289 290 287 288 288 291 297 296 286 290 287 285 286 294 295 293 289 289 283 281 285 286 287 301 303 305 306 306 305 313 321
293 294 302 302 288 289 290 289 292 292 293 292 292 294 294 290 285 289 291 297 297 294 287 290 287 283 284 290 292 289 291 291 291 289 282 279 291 309 311 309 304 306 312 321 323
295 290 295 295 293 289 287 287 289 294 293 294 292 294 292 289 291 288 290 294 296 295 299 294 288 287 283 285 290 287 289 291 289 283 283 283 285 296 308 305 310 316 320 319 317
294 290 291 288 290 289 288 288 287 287 292 293 292 293 290 285 287 288 290 291 293 296 294 291 286 289 291 291 291 291 289 290 288 288 286 287 288 294 308 312 315 316 317 315 313
293 292 293 290 291 289 288 289 287 289 288 290 290 292 291 288 289 286 289 289 289 292 291 291 287 290 289 293 292 289 291 292 292 292 291 291 290 302 314 316 313 313 312 311 311
297 297 293 290 289 288 289 288 288 290 292 293 292 290 291 294 296 296 295 293 292 290 288 289 290 288 286 292 291 287 290 292 293 293 292 288 296 309 309 309 310 310 310 308 308
Wind_Speed
18 18 18 18 18 18 18 17 17 17 16 15 14 15 16 17 17 10 6 2 4 5 4 5 1 1 3 6 4 3 9 14 16 14 7 3 11 5 3 14 6 6 12 4 13
19 19 19 19 19 19 18 18 17 16 14 13 13 13 14 16 15 8 6 7 6 7 4 6 4 1 4 5 7 10 12 18 6 12 9 7 14 7 5 7 12 9 12 6 16
20 20 20 20 20 20 19 18 17 15 13 12 12 12 12 12 5 2 2 5 4 5 3 4 2 1 5 4 7 8 16 11 6 2 6 13 13 9 11 19 13 13 9 7 15
21 21 21 21 21 21 19 17 16 14 12 11 11 11 10 4 4 2 11 6 4 4 3 3 2 4 4 8 9 11 10 14 14 13 10 10 7 9 13 19 9 11 8 9 10
22 22 22 23 22 21 19 17 15 13 13 11 9 7 3 2 5 3 3 5 2 1 2 3 4 4 5 4 6 13 17 11 9 10 11 14 17 16 19 14 15 18 16 13 12
22 23 23 24 23 21 18 16 16 15 12 9 7 3 1 2 2 3 2 5 5 4 5 5 3 4 3 4 6 2 6 9 12 19 13 14 21 16 13 14 21 19 20 15 14
22 23 24 24 22 21 19 18 16 14 9 7 8 4 2 2 1 1 3 4 2 4 4 6 5 6 1 5 5 8 12 9 13 13 14 13 23 34 16 20 17 14 14 12 14
22 23 23 23 22 21 20 20 15 5 3 7 10 4 6 3 3 8 4 5 6 6 4 2 6 5 5 4 8 10 9 8 1 11 15 15 29 25 10 17 25 22 23 20 17
23 22 22 22 21 21 21 16 4 8 11 11 5 2 3 2 4 2 6 5 5 4 5 3 5 4 4 6 6 5 9 8 6 5 7 21 27 6 6 17 16 15 19 17 15
25 22 21 21 20 20 19 3 9 8 6 3 3 3 4 5 5 10 3 4 6 2 3 7 6 8 6 8 8 7 8 8 11 4 13 19 26 16 19 14 13 12 16 15 16
25 24 23 20 19 16 6 2 3 2 4 6 7 5 10 6 6 11 3 3 3 3 8 6 9 14 19 17 17 14 16 16 12 10 11 19 16 17 14 20 18 16 16 13 13
27 26 24 21 18 11 2 2 1 5 10 5 7 8 8 4 17 10 5 4 4 8 2 6 17 20 20 18 19 20 21 19 16 15 15 22 22 20 17 24 17 17 19 16 10
25 25 25 20 16 1 2 1 4 1 4 7 3 3 4 8 13 12 4 4 8 12 11 16 18 9 12 17 20 21 22 16 20 10 17 19 24 26 24 24 19 19 20 17 14
25 24 23 20 2 2 2 3 5 2 3 4 2 0 4 18 4 15 2 4 5 12 13 15 13 18 19 23 18 24 18 18 17 10 10 10 14 19 15 26 22 21 20 19 14
27 24 18 5 2 2 3 8 1 3 4 13 3 2 19 6 17 3 3 3 15 18 11 11 10 7 14 20 18 21 16 15 16 16 15 17 12 17 17 17 24 24 21 20 15
29 24 12 3 1 2 6 2 2 2 3 7 5 19 20 17 4 7 10 2 6 9 13 26 18 15 20 17 13 4 9 8 10 10 11 25 18 14 17 24 20 24 21 20 15
29 24 2 0 5 6 3 2 2 4 7 7 13 19 21 10 11 12 16 13 8 5 5 8 15 14 10 11 5 11 9 5 8 8 16 12 18 19 20 22 23 24 20 18 14
29 11 1 1 8 2 1 1 4 2 8 13 15 22 5 11 11 11 14 14 6 10 4 4 7 10 11 12 9 14 17 7 8 9 12 13 16 19 30 23 12 15 16 13 15
20 3 2 10 5 2 2 5 3 7 10 12 18 5 7 13 7 12 8 9 4 9 4 5 8 6 12 12 8 3 13 10 5 11 10 15 17 17 25 21 21 16 16 17 17
4 4 4 15 6 2 4 1 3 3 9 6 6 2 17 20 14 12 6 4 4 5 8 2 10 9 3 7 10 4 5 7 6 6 11 15 22 13 22 25 18 18 20 17 16
3 2 7 13 1 5 4 3 6 7 10 4 7 9 13 10 10 5 7 12 8 7 7 5 7 1 5 8 9 5 4 4 6 9 6 11 15 19 14 24 22 21 22 20 19
3 2 8 7 4 2 2 6 5 6 2 5 6 8 9 14 7 8 8 7 12 11 5 8 4 5 7 5 3 11 7 15 10 9 8 7 3 12 15 15 21 18 19 21 21
4 4 5 5 4 4 6 5 4 5 8 4 6 5 9 7 9 7 10 8 14 9 5 4 4 2 4 5 1 6 14 15 12 5 10 6 3 4 6 10 12 19 24 23 23
3 5 3 5 2 2 5 4 8 7 8 5 10 10 10 16 10 12 18 9 19 18 13 7 4 5 6 4 1 5 10 14 15 7 6 11 21 23 9 15 19 22 25 23 20
5 3 1 6 2 6 3 3 6 7 5 7 5 15 20 10 18 5 21 14 11 6 6 3 4 3 12 14 13 11 9 9 12 14 7 9 15 18 11 21 23 24 25 23 21
3 4 2 4 6 7 1 1 5 7 4 7 8 21 21 10 12 25 25 16 4 6 5 3 4 6 4 5 8 8 10 11 13 10 12 11 18 17 17 20 19 23 24 22 21
1 0 2 3 4 4 2 2 7 11 8 16 18 18 18 19 24 27 17 10 7 6 6 5 6 5 4 2 5 6 3 9 9 7 12 6 8 17 16 18 18 20 20 23 22
Wind_Direction
351 347 344 341 338 336 335 333 331 328 325 322 321 323 322 321 318 310 264 220 195 268 326 315 280 281 161 191 199 162 232 239 234 221 219 178 214 186 219 233 204 204 241 81 143
347 344 341 338 334 332 330 329 326 324 322 317 316 318 320 320 317 282 250 256 258 275 322 15 59 105 213 207 199 209 227 235 226 241 243 244 240 212 252 220 231 258 259 306 169
344 341 338 335 332 330 330 327 323 321 319 317 318 317 318 322 281 67 107 206 258 269 267 314 196 241 223 210 204 219 240 232 183 324 296 275 255 242 252 250 233 239 250 358 180
341 339 337 334 332 330 329 326 323 321 315 312 311 307 317 314 7 93 164 47 328 277 267 158 159 181 207 219 225 252 247 250 264 289 303 290 311 286 249 249 261 249 309 316 203
339 337 335 333 331 330 330 327 323 315 309 305 297 296 327 288 256 211 311 348 296 189 202 216 210 192 236 238 235 241 250 247 260 286 289 292 272 272 260 253 265 278 278 276 259
337 337 336 333 332 331 329 323 317 308 300 286 264 226 220 8 154 214 261 303 237 191 167 173 223 237 264 250 247 326 298 276 267 258 261 277 281 277 246 245 252 255 266 267 250
337 337 337 334 333 329 326 324 319 306 291 245 210 159 230 225 193 177 273 236 228 210 214 193 186 223 115 276 267 283 282 277 247 240 242 251 272 248 258 258 263 247 246 243 250
338 339 338 337 333 328 328 328 317 321 165 149 158 165 254 239 278 276 212 251 227 236 234 230 190 204 221 260 261 275 278 275 343 227 221 202 254 254 242 233 248 251 256 256 258
341 342 340 339 333 331 331 331 353 101 119 133 149 200 270 290 283 287 199 263 170 191 213 153 179 233 186 247 274 243 262 249 275 263 230 211 246 278 269 248 261 256 258 254 252
345 343 340 337 332 331 332 279 107 105 123 152 130 238 246 326 328 305 206 240 251 233 220 196 207 221 216 221 250 247 252 253 261 234 228 234 248 254 279 286 289 294 268 255 243
344 343 339 336 332 333 339 195 300 217 196 261 293 261 289 300 295 313 238 167 196 205 237 201 225 235 243 235 249 260 261 262 261 273 286 261 275 273 276 274 268 267 267 263 245
340 340 338 333 330 329 298 16 71 328 300 273 255 254 269 270 312 317 156 224 210 256 225 239 245 254 256 253 247 251 257 259 262 250 257 265 270 269 260 265 265 267 261 259 237
337 336 335 331 326 48 336 320 331 287 284 300 247 261 314 309 306 306 183 276 238 264 255 262 265 281 243 248 244 243 249 252 254 262 259 267 269 264 253 257 256 253 254 256 228
335 335 334 328 186 348 315 30 1 351 300 342 17 181 344 331 263 330 265 279 262 280 285 275 288 249 251 251 243 257 240 239 242 242 254 205 267 257 247 244 239 243 241 241 219
336 335 335 322 323 298 6 329 297 189 310 330 307 319 328 330 293 268 177 231 277 279 262 249 261 233 234 248 252 255 247 233 237 239 263 248 257 262 241 240 226 229 232 236 222
336 337 341 101 183 282 330 311 222 252 339 335 315 326 330 331 261 271 298 226 296 275 251 261 258 268 254 258 256 249 214 238 221 233 241 240 226 249 232 219 224 221 220 228 206
335 334 333 173 333 323 307 189 323 29 335 317 319 325 321 313 313 316 310 294 273 298 267 300 254 238 240 231 227 185 155 178 196 198 240 233 233 236 207 227 224 217 211 213 199
332 325 152 242 323 287 200 1 15 355 310 306 317 316 301 333 324 311 302 300 249 234 275 287 300 187 183 210 202 199 194 190 212 213 246 217 225 232 231 243 249 247 211 195 185
329 336 25 345 344 294 34 51 323 333 326 316 319 311 310 322 313 312 292 293 266 197 245 280 248 238 213 213 189 180 209 206 317 247 256 223 231 250 229 227 235 240 192 182 181
351 327 17 338 339 40 59 305 269 243 323 310 305 330 315 318 319 330 308 270 277 221 207 290 279 250 309 190 185 206 195 169 215 242 232 229 227 234 203 213 221 211 196 178 172
7 353 3 344 350 48 55 293 289 288 322 294 288 287 299 308 288 286 265 283 278 279 247 204 220 314 174 203 196 184 182 192 257 239 273 276 222 208 219 199 204 201 182 168 163
341 342 354 341 41 35 14 314 295 292 286 287 275 274 278 310 271 273 250 261 290 320 253 205 272 252 239 138 125 201 199 206 221 225 234 285 204 190 207 195 194 194 164 157 144
1 301 349 344 43 357 329 297 271 308 319 308 282 281 282 294 305 256 289 277 318 313 257 186 236 278 199 212 156 204 215 220 237 271 284 340 71 343 201 161 165 159 148 140 130
347 344 9 45 63 28 339 293 312 314 293 298 281 288 301 304 289 285 286 306 311 302 296 200 242 270 278 317 142 224 208 218 226 269 314 262 290 282 169 150 145 147 135 127 125
9 63 43 327 41 337 283 272 300 329 299 305 270 310 325 300 306 267 309 315 304 297 316 268 269 260 279 261 255 244 201 194 213 227 252 309 286 297 165 143 138 137 125 124 123
7 349 357 286 288 308 238 264 305 318 277 289 282 318 312 290 302 308 310 315 283 317 312 291 295 306 294 14 206 201 184 199 251 260 239 252 275 265 144 115 126 128 126 126 121
46 191 284 276 294 291 252 297 293 322 269 248 288 306 307 321 316 296 290 265 252 308 330 298 310 324 16 323 130 131 37 324 316 307 293 241 240 124 111 117 116 121 124 123 119